Content
SEND FEEDBACK

Daily
Averages
Monthly
Summary
United States of America

NEWARK, NEW JERSEY


Home > North America > United States > New Jersey
Elevation: 30 feet     Latitude: 40 42N     Longitude: 074 10W

WEATHER
 
SELECT A DAY
Number of Records: 189,593;   Date Range: 1/1/95 - 7/26/14
 
SHARE

PRINT THIS DATA

[ ← Previous Day ]
WEATHER ALMANAC - JANUARY 31, 2013
[ Next Day → ]
[ °C ]   °F
Weather ElementAverageHighLow
Temperature48.4 °F62.1 °F (12:51 am)30 °F (11:51 pm)
Dewpoint34.8 °F59 °F (12:51 am)7 °F (10:51 pm)
Humidity62.7 %94 % (1:02 am)34 % (11:51 am)
Barometer29.36 in29.80 in (11:51 pm)29.06 in (3:51 am)
Wind Speed26.7 mph42.6 mph (6:39 am)
Wind Gust58.7 mph (4:03 am)
Weather ElementAverage
Visibility7.9 mi
Wind DirectionWSW (240.6 °)

Weather ElementTotal
Precipitation1.45 in
Heating Degree Days19 (Base 65)
Averaged from 32 records on January 31, 2013
WEATHER CONDITIONS BREAKOUT
WIND DIRECTION BREAKOUT
WEATHER BY HOUR - JANUARY 31, 2013
[ °C ]   °F
Local TimeTemperatureDewpointHumidityBarometerVisibilityWind DirectionWind SpeedGust SpeedPrecipitationEventsConditions
12:51 AM62.1 °F59.0 °F90 %29.30 in4.0 miSouth (180°)25.3 mph36.8 mph0.09 inRain-ThunderstormLight Thunderstorms and Rain
1:02 AM60.8 °F59.0 °F94 %29.28 in5.0 miSouth (190°)19.6 mph35.7 mph0.01 inRainRain
1:51 AM62.1 °F57.9 °F86 %29.20 in6.0 miSouth (180°)23.0 mph39.1 mph0.07 inRainLight Rain
2:51 AM62.1 °F57.9 °F86 %29.13 in6.0 miSouth (180°)31.1 mph47.2 mph0.05 inRainLight Rain
3:51 AM62.1 °F59.0 °F90 %29.06 in3.0 miSouth (180°)27.6 mph44.9 mph0.19 inRainRain
4:03 AM60.8 °F59.0 °F94 %29.14 in1.0 miSW (230°)40.3 mph58.7 mph0.03 inRainRain
4:12 AM59.0 °F57.2 °F94 %29.12 in3.0 miSW (220°)24.2 mph40.3 mph0.25 inRainRain
4:34 AM60.8 °F57.2 °F88 %29.12 in6.0 miSW (230°)18.4 mph26.5 mph0.28 inRainLight Rain
4:51 AM60.1 °F55.9 °F86 %29.12 in6.0 miSSW (210°)17.3 mph25.3 mph0.30 inRainLight Rain
5:04 AM59.0 °F55.4 °F88 %29.11 in7.0 miSW (220°)18.4 mph27.6 mph0.03 inRainLight Rain
5:51 AM57.9 °F54.0 °F87 %29.06 in10.0 miSouth (190°)16.1 mph23.0 mph0.06 inOvercast
6:30 AM57.2 °F53.6 °F88 %29.09 in4.0 miWSW (240°)20.7 mph34.5 mph0.02 inRainRain
6:39 AM53.6 °F48.2 °F82 %29.11 in3.0 miWest (260°)42.6 mph55.2 mph0.03 inRainLight Rain
6:51 AM51.1 °F43.0 °F74 %29.16 in10.0 miWest (270°)29.9 mph49.5 mph0.03 inOvercast
7:29 AM48.2 °F35.6 °F62 %29.19 in10.0 miWest (260°)27.6 mph34.5 mphMostly Cloudy
7:51 AM46.9 °F34.0 °F61 %29.21 in10.0 miWest (260°)31.1 mph38.0 mph0.01 inMostly Cloudy
8:51 AM46.0 °F30.0 °F54 %29.31 in10.0 miWest (270°)39.1 mph48.3 mphMostly Cloudy
9:51 AM44.1 °F25.0 °F47 %29.36 in10.0 miWest (270°)32.2 mph51.8 mphScattered Clouds
10:51 AM45.0 °F21.0 °F39 %29.40 in10.0 miWest (260°)33.4 mph41.4 mphScattered Clouds
11:51 AM46.0 °F19.0 °F34 %29.42 in10.0 miWest (280°)33.4 mph43.7 mphScattered Clouds
12:51 PM46.0 °F19.0 °F34 %29.43 in10.0 miWest (260°)31.1 mph42.6 mphScattered Clouds
1:51 PM45.0 °F19.0 °F36 %29.47 in10.0 miWSW (250°)23.0 mph42.6 mphScattered Clouds
2:51 PM44.1 °F18.0 °F35 %29.51 in10.0 miWest (260°)27.6 mph42.6 mphScattered Clouds
3:51 PM42.1 °F15.1 °F34 %29.55 in10.0 miWest (270°)26.5 mph44.9 mphScattered Clouds
4:51 PM39.0 °F17.1 °F41 %29.60 in10.0 miWest (270°)31.1 mph40.3 mphScattered Clouds
5:51 PM36.0 °F12.9 °F39 %29.67 in10.0 miWest (260°)28.8 mph43.7 mph0.00 inPartly Cloudy
6:51 PM35.1 °F12.9 °F40 %29.71 in10.0 miWSW (250°)24.2 mph29.9 mphPartly Cloudy
7:51 PM33.1 °F15.1 °F48 %29.73 in10.0 miWest (270°)20.7 mph31.1 mphScattered Clouds
8:51 PM32.0 °F19.0 °F59 %29.75 in10.0 miWSW (250°)17.3 mph26.5 mph0.00 inScattered Clouds
9:51 PM32.0 °F10.0 °F40 %29.77 in10.0 miWest (260°)28.8 mph36.8 mphPartly Cloudy
10:51 PM30.9 °F7.0 °F37 %29.78 in10.0 miWest (260°)27.6 mph35.7 mphPartly Cloudy
11:51 PM30.0 °F8.1 °F40 %29.80 in10.0 miWest (260°)15.0 mphPartly Cloudy
Hourly data recorded from KEWR, located miles away from Newark, New Jersey







STORIES FROM OUR PARTNERS